Location: Byhalia Creek
(34.8270°N, 89.8040°W)
Time: 16:47:47
(UTC+00:00)

H-2A R/B - Pass Details

Date: 22 April 2026
Orbit: 729 x 829 km, 98.3° (Epoch: 9 May)

Event Time Altitude Azimuth Distance (km) Brightness Sun altitude
Rises 09:42:00 0° 1° (N) 3,257 5.7 -19.1°
Reaches altitude 10° 09:44:28 10° 352° (N) 2,342 4.8 -18.6°
Maximum altitude 09:49:04 33° 289° (WNW) 1,310 2.9 -17.8°
Enters shadow 09:50:29 28° 259° (W) 1,448 2.9 -17.6°
